Tracking 30692 objects as of 16-Jun-2025
HD Live streaming from Space Station
objects crossing your sky now

ELECTRON KICK STAGE R/B

Track ELECTRON KICK STAGE R/B now!
10-day predictions


NORAD ID: 53817
Int'l Code: 2022-113C
Perigee: 470.4 km
Apogee: 481.4 km
Inclination: 97.5 °
Period: 94.0 minutes
Semi major axis: 6846 km
RCS: Unknown
Launch date: September 15, 2022
Source: United States (US)
Launch site: Rocket Lab Launch Complex (RLLC)

Note: This is a ROCKET BODY
Your satellite tracking list
Your tracking list is empty




NASA's NSSDC Master Catalog

Two Line Element Set (TLE):
1 53817U 22113C   25167.43262389  .00014347  00000-0  46089-3 0  9990
2 53817  97.5343 229.4880 0008006  79.5984 280.6159 15.32365086151722
Source of the keplerian elements: AFSPC